Chickasha, OK

6:23 AM CDT on May 25, 2017 (GMT -0500)
Chickasha Municipal

Weather History for KCHK - April, 2014

Change the Weather History Date:

Thursday, April 10, 2014

  Actual Average Record
Temperature  
Mean Temperature 72 °F -  
Max Temperature 86 °F 73 °F 91 °F (1963)
Min Temperature 59 °F 47 °F 27 °F (1973)
Cooling Degree Days 8    
Growing Degree Days 22 (Base 50)    
Moisture  
Dew Point 46 °F    
Average Humidity 44    
Maximum Humidity 63    
Minimum Humidity 25    
Precipitation  
Precipitation 0.00 in - - ()
Sea Level Pressure  
Sea Level Pressure 29.84 in    
Wind  
Wind Speed 14 mph (SW)    
Max Wind Speed 21 mph    
Max Gust Speed 32 mph    
Visibility 10 miles    
Events      
Averages and records for this station are not official NWS values.
T = Trace of Precipitation, MM = Missing Value Source: NWS Daily Summary

Daily Weather History Graph

Daily Weather History Graph

Search for Another Location

Airport or City:

Trip Planner

Search our weather history database for the weather conditions in past years. The results will help you decide how hot, cold, wet, or windy it might be!

Date:

Astronomy

Apr. 10, 2014 Rise Set
Actual Time 7:06 AM CDT 8:00 PM CDT
Civil Twilight 6:40 AM CDT 8:26 PM CDT
Nautical Twilight 6:09 AM CDT 8:57 PM CDT
Astronomical Twilight 5:38 AM CDT 9:28 PM CDT
Moon 3:54 PM CDT (4/10) 4:20 AM CDT (4/10)
Length of Visible Light 13h 45m
Length of Day
12h 54m
Waxing Gibbous, 80% of the Moon is Illuminated
Apr 10
Waxing Gibbous
Apr 15
Full
Apr 22
Last Quarter
Apr 29
New
May 6
First Quarter

Hourly Weather History & Observations

Time (CDT) Temp. Dew Point Humidity Pressure Visibility Wind Dir Wind Speed Gust Speed Precip Events Conditions
12:15 AM 68.0 °F 46.4 °F 46% 29.87 in 10.0 mi South 18.4 mph 23.0 mph N/A   Clear
12:35 AM 68.0 °F 46.4 °F 46% 29.87 in 10.0 mi South 19.6 mph 27.6 mph N/A   Scattered Clouds
12:55 AM 68.0 °F 46.4 °F 46% 29.86 in 10.0 mi South 19.6 mph 32.2 mph N/A   Mostly Cloudy
1:15 AM 68.0 °F 46.4 °F 46% 29.85 in 10.0 mi South 18.4 mph 26.5 mph N/A   Scattered Clouds
1:35 AM 66.2 °F 46.4 °F 49% 29.85 in 10.0 mi South 19.6 mph 32.2 mph N/A   Clear
1:55 AM 66.2 °F 46.4 °F 49% 29.85 in 10.0 mi South 19.6 mph 28.8 mph N/A   Clear
2:15 AM 66.2 °F 44.6 °F 46% 29.84 in 10.0 mi South 20.7 mph 26.5 mph N/A   Clear
2:35 AM 66.2 °F 44.6 °F 46% 29.83 in 10.0 mi South 20.7 mph 28.8 mph N/A   Clear
2:55 AM 66.2 °F 44.6 °F 46% 29.83 in 10.0 mi SSW 17.3 mph 27.6 mph N/A   Clear
3:15 AM 66.2 °F 44.6 °F 46% 29.83 in 10.0 mi SSW 16.1 mph 25.3 mph N/A   Clear
3:35 AM 62.6 °F 44.6 °F 52% 29.83 in 10.0 mi SSW 13.8 mph 23.0 mph N/A   Clear
3:55 AM 62.6 °F 42.8 °F 48% 29.83 in 10.0 mi SSW 12.7 mph 18.4 mph N/A   Clear
4:15 AM 62.6 °F 42.8 °F 48% 29.83 in 10.0 mi South 9.2 mph 16.1 mph N/A   Clear
4:35 AM 60.8 °F 42.8 °F 52% 29.83 in 10.0 mi South 6.9 mph - N/A   Clear
4:55 AM 60.8 °F 42.8 °F 52% 29.82 in 10.0 mi South 8.1 mph - N/A   Clear
5:15 AM 60.8 °F 42.8 °F 52% 29.83 in 10.0 mi South 3.5 mph - N/A   Clear
5:35 AM 60.8 °F 42.8 °F 52% 29.83 in 10.0 mi South 3.5 mph - N/A   Clear
5:55 AM 59.0 °F 42.8 °F 55% 29.82 in 10.0 mi South 6.9 mph - N/A   Clear
6:15 AM 59.0 °F 41.0 °F 51% 29.82 in 10.0 mi South 6.9 mph - N/A   Clear
6:35 AM 60.8 °F 41.0 °F 48% 29.82 in 10.0 mi SSW 5.8 mph - N/A   Clear
6:55 AM 60.8 °F 41.0 °F 48% 29.82 in 10.0 mi South 4.6 mph - N/A   Clear
7:15 AM 60.8 °F 41.0 °F 48% 29.82 in 10.0 mi South 3.5 mph - N/A   Clear
7:35 AM 60.8 °F 41.0 °F 48% 29.82 in 10.0 mi South 4.6 mph - N/A   Clear
7:55 AM 60.8 °F 42.8 °F 52% 29.82 in 10.0 mi South 5.8 mph - N/A   Clear
8:15 AM 64.4 °F 42.8 °F 45% 29.82 in 10.0 mi SW 8.1 mph - N/A   Clear
8:35 AM 66.2 °F 42.8 °F 43% 29.82 in 10.0 mi SW 13.8 mph - N/A   Clear
8:55 AM 68.0 °F 44.6 °F 43% 29.83 in 10.0 mi SW 9.2 mph 17.3 mph N/A   Clear
9:15 AM 68.0 °F 44.6 °F 43% 29.83 in 10.0 mi SW 11.5 mph 18.4 mph N/A   Clear
9:35 AM 68.0 °F 44.6 °F 43% 29.83 in 10.0 mi SW 16.1 mph 21.9 mph N/A   Clear
9:55 AM 69.8 °F 44.6 °F 40% 29.83 in 10.0 mi SW 13.8 mph 20.7 mph N/A   Clear
10:15 AM 73.4 °F 46.4 °F 38% 29.83 in 10.0 mi SW 16.1 mph - N/A   Clear
10:35 AM 73.4 °F 46.4 °F 38% 29.83 in 10.0 mi SW 15.0 mph 25.3 mph N/A   Clear
10:55 AM 73.4 °F 46.4 °F 38% 29.84 in 10.0 mi SW 15.0 mph - N/A   Clear
11:15 AM 73.4 °F 44.6 °F 36% 29.83 in 10.0 mi SW 19.6 mph 24.2 mph N/A   Clear
11:35 AM 77.0 °F 46.4 °F 34% 29.83 in 10.0 mi SW 16.1 mph 21.9 mph N/A   Clear
11:55 AM 78.8 °F 48.2 °F 34% 29.82 in 10.0 mi SW 18.4 mph 24.2 mph N/A   Clear
12:15 PM 78.8 °F 46.4 °F 32% 29.82 in 10.0 mi SW 16.1 mph 23.0 mph N/A   Clear
12:35 PM 78.8 °F 46.4 °F 32% 29.83 in 10.0 mi WSW 15.0 mph 21.9 mph N/A   Clear
12:55 PM 80.6 °F 46.4 °F 30% 29.82 in 10.0 mi WSW 15.0 mph 23.0 mph N/A   Clear
1:15 PM 80.6 °F 46.4 °F 30% 29.82 in 10.0 mi WSW 13.8 mph 23.0 mph N/A   Clear
1:35 PM 80.6 °F 46.4 °F 30% 29.82 in 10.0 mi WSW 12.7 mph 20.7 mph N/A   Clear
1:55 PM 82.4 °F 46.4 °F 28% 29.82 in 10.0 mi WSW 13.8 mph 17.3 mph N/A   Clear
2:15 PM 82.4 °F 46.4 °F 28% 29.81 in 10.0 mi SW 9.2 mph - N/A   Clear
2:35 PM 82.4 °F 48.2 °F 30% 29.81 in 10.0 mi SSW 9.2 mph - N/A   Clear
2:55 PM 86.0 °F 50.0 °F 29% 29.81 in 10.0 mi WSW 6.9 mph - N/A   Clear
3:15 PM 82.4 °F 46.4 °F 28% 29.81 in 10.0 mi SW 6.9 mph 17.3 mph N/A   Clear
3:35 PM 86.0 °F 50.0 °F 29% 29.80 in 10.0 mi SSW 11.5 mph - N/A   Clear
3:55 PM 86.0 °F 48.2 °F 27% 29.80 in 10.0 mi WSW 4.6 mph - N/A   Clear
4:15 PM 86.0 °F 48.2 °F 27% 29.80 in 10.0 mi NW 8.1 mph - N/A   Clear
4:35 PM 86.0 °F 46.4 °F 25% 29.80 in 10.0 mi WNW 5.8 mph - N/A   Clear
4:55 PM 80.6 °F 50.0 °F 34% 29.81 in 10.0 mi North 13.8 mph - N/A   Clear
5:15 PM 80.6 °F 48.2 °F 32% 29.81 in 10.0 mi North 13.8 mph - N/A   Clear
5:35 PM 78.8 °F 48.2 °F 34% 29.81 in 10.0 mi North 15.0 mph - N/A   Clear
5:55 PM 78.8 °F 50.0 °F 36% 29.81 in 10.0 mi North 17.3 mph - N/A   Clear
6:15 PM 77.0 °F 50.0 °F 39% 29.81 in 10.0 mi North 12.7 mph 18.4 mph N/A   Clear
6:35 PM 77.0 °F 50.0 °F 39% 29.82 in 10.0 mi North 10.4 mph - N/A   Clear
6:55 PM 73.4 °F 50.0 °F 44% 29.82 in 10.0 mi North 11.5 mph - N/A   Clear
7:15 PM 73.4 °F 50.0 °F 44% 29.83 in 10.0 mi North 8.1 mph - N/A   Clear
7:35 PM 71.6 °F 50.0 °F 46% 29.84 in 10.0 mi North 8.1 mph - N/A   Clear
7:55 PM 68.0 °F 50.0 °F 52% 29.85 in 10.0 mi North 8.1 mph - N/A   Clear
8:15 PM 62.6 °F 46.4 °F 55% 29.85 in 10.0 mi North 8.1 mph - N/A   Clear
8:35 PM 60.8 °F 46.4 °F 59% 29.86 in 5.0 mi NE 6.9 mph - N/A   Haze
8:55 PM 60.8 °F 46.4 °F 59% 29.87 in 10.0 mi NNE 8.1 mph - N/A   Clear
9:15 PM 60.8 °F 48.2 °F 63% 29.88 in 10.0 mi NNE 10.4 mph - N/A   Clear
9:35 PM 60.8 °F 48.2 °F 63% 29.89 in 10.0 mi NNE 9.2 mph - N/A   Clear
9:55 PM 60.8 °F 48.2 °F 63% 29.90 in 10.0 mi NNE 9.2 mph - N/A   Clear
10:15 PM 60.8 °F 46.4 °F 59% 29.90 in 10.0 mi NNE 11.5 mph - N/A   Clear
10:35 PM 60.8 °F 46.4 °F 59% 29.90 in 10.0 mi NNE 11.5 mph - N/A   Clear
10:55 PM 60.8 °F 46.4 °F 59% 29.90 in 10.0 mi NNE 12.7 mph - N/A   Clear
11:15 PM 60.8 °F 46.4 °F 59% 29.89 in 10.0 mi NNE 12.7 mph - N/A   Clear
11:35 PM 60.8 °F 46.4 °F 59% 29.89 in 10.0 mi NE 11.5 mph - N/A   Clear
11:55 PM 59.0 °F 46.4 °F 63% 29.89 in 10.0 mi NE 12.7 mph - N/A   Clear